Location: Rounton
(54.4000°N, 1.3500°W)
Time: 15:15:13
(UTC+00:00)

Transit 2A - Pass Details

Date: 04 December 2021
Orbit: 591 x 967 km, 66.7° (Epoch: 21 January)

Event Time Altitude Azimuth Distance (km) Brightness Sun altitude
Rises 05:33:10 0° 304° (NW) 3,589 - -21.1°
Reaches altitude 10° 05:36:01 10° 315° (NW) 2,678 - -20.7°
Exits shadow 05:38:18 20° 331° (NNW) 2,066 7.9 -20.4°
Maximum altitude 05:41:32 30° 16° (NNE) 1,657 7.7 -19.9°
Drops below altitude 10° 05:47:06 10° 76° (ENE) 2,705 9.8 -19.2°
Sets 05:50:00 0° 87° (E) 3,631 10.9 -18.7°
